Hourly Weather Roundup
Issued by NWS Central Illinois

Home | Current Version | Previous Version | Text Only | Print | Product List | Glossary On
Versions: 1 2 3 4 5 6 7 8 9 10 11 12 13 14 15 16 17 18 19 20 21 22 23 24 25 26 27 28 29 30 31 32 33 34 35 36 37 38 39 40 41 42 43 44 45 46 47 48 49 50
000
NZUS43 KILX 241310
HWRILX

AREA WEATHER ROUNDUP
NATIONAL WEATHER SERVICE, LINCOLN IL
800 AM CDT FRI OCT 24 2014


CITY           SKY/WX    TMP DP  RH WIND       PRES   REMARKS
BLOOMINGTON    CLEAR     46  45  97 SW5       30.09R
CHAMPAIGN      PTCLDY    46  44  93 SE3       30.09R
DECATUR        MOCLDY    49  45  86 W3        30.10R
FLORA          CLEAR     51  47  87 CALM      30.11R
GALESBURG      FOG       51  51  99 CALM      30.07R VSB<1/4
JACKSONVILLE   FOG       56  55  96 SW3       30.09R VSB<1/4
LACON          FOG       42  41  97 CALM      30.07S VSB 1
LAWRENCEVILLE  CLOUDY    52  48  86 S3        30.12R
LITCHFIELD     CLOUDY    48  47  93 CALM      30.10R
$$


CITY           SKY/WX    TMP DP  RH WIND       PRES   REMARKS
LINCOLN        CLOUDY    49  47  95 CALM      30.08R
MACOMB         FOG       50  50 100 CALM      30.09S VSB<1/4
MATTOON        PTCLDY    49  45  86 S6        30.09R
MT CARMEL AP   CLOUDY    54  50  87 CALM      30.11R
OLNEY-NOBLE AP CLOUDY    50  46  87 CALM      30.11R
PARIS          CLOUDY    50  48  93 CALM      30.10S
PEORIA         CLOUDY    50  46  86 CALM      30.08S FOG
PONTIAC        CLEAR     44  44  99 CALM      30.09R FOG
RANTOUL        PTCLDY    46  45  96 CALM      30.09R FOG
ROBINSON       CLOUDY    53  49  86 CALM      30.12R
SPRINGFIELD    FOG       54  53  97 CALM      30.09S VSB 1/4
TAYLORVILLE    CLOUDY    52  50  93 W3        30.10R FOG
$$

...REGIONAL REPORTS...


CITY           SKY/WX    TMP DP  RH WIND       PRES   REMARKS
CHICAGO O`HARE CLOUDY    52  46  80 W5        30.06R
KANKAKEE       CLOUDY    47  45  94 CALM      30.09R FOG
MOLINE         FOG       51  50  96 CALM      30.06R VSB 3/4
MOUNT VERNON   MOCLDY    48  45  87 CALM      30.12R
PITTSFIELD     FOG       56  54  94 CALM      30.10R VSB<1/4
QUINCY         FOG       54  54 100 SW6       30.08R VSB<1/4
ROCKFORD       FOG       48  47  96 CALM      30.07F VSB 1
$$


CITY           SKY/WX    TMP DP  RH WIND       PRES   REMARKS
BURLINGTON     FOG       53  53 100 SW5       30.07R VSB<1/4
CEDAR RAPIDS   FOG       45  45 100 S7        30.03R VSB 1/16
DES MOINES     FOG       59  57  93 S13       29.98S VSB 1/8
KIRKSVILLE     FOG       55  55 100 SW10      30.08R VSB<1/4
OTTUMWA        FOG       55  54  96 S6        30.03S VSB 1/4
ST LOUIS       CLOUDY    57  51  80 W6        30.11R
$$


CITY           SKY/WX    TMP DP  RH WIND       PRES   REMARKS
TERRE HAUTE    CLOUDY    48  46  93 SE3       30.11R
EVANSVILLE     MOCLDY    50  47  89 CALM      30.13S
INDIANAPOLIS   MOCLDY    46  42  86 CALM      30.11R
LAFAYETTE      CLOUDY    48  46  93 CALM      30.10R
MADISON        FOG       49  48  97 CALM      30.05R VSB 3/4
MILWAUKEE      CLOUDY    51  48  89 W5        30.05R FOG
$$





USA.gov is the U.S. government's official web portal to all federal, state and local government web resources and services.